Wind_Speed
50 50 49 49 48 47 46 45 45 45 47 51 55 59 62 66 69 73 76 80 83 87 90 94 97 100 102 105 108 109 110 109 109 109 109 109 109 109 109 109 108 107 106 105 104 103 101 99 97 95 93 92 91 89 87 85 81 77 74 72 71 72 72 71 71 70 69 68 66 64 62 62 61 61 60 59 59 61 65 68 70 72 73 72 71 69
49 49 48 48 48 47 46 45 44 45 47 50 53 57 61 64 68 71 75 78 82 86 89 93 96 98 101 104 106 108 109 109 109 109 109 109 109 109 109 109 108 107 106 105 104 103 102 100 98 96 94 92 91 89 88 85 82 78 74 72 72 72 72 72 71 71 70 68 67 66 65 66 66 64 63 62 61 63 65 67 70 72 72 72 71 69
48 48 48 48 47 47 46 44 44 44 46 49 52 56 59 63 67 70 74 77 81 85 88 91 94 97 100 103 105 107 109 109 109 109 109 109 109 109 109 109 108 107 106 105 104 103 103 101 98 96 94 93 91 90 88 86 83 79 75 74 73 73 73 72 72 71 70 68 68 68 69 70 69 68 65 64 63 64 65 67 70 72 72 71 70 69
47 47 47 47 47 46 46 44 43 43 45 48 51 54 58 62 66 69 73 77 80 83 86 90 92 95 98 101 104 107 109 110 110 109 109 109 109 109 108 108 108 107 106 105 104 103 102 101 99 96 94 93 92 90 89 87 84 81 77 75 74 74 73 72 72 71 69 68 68 68 69 69 68 67 65 64 63 64 65 67 70 72 71 70 69 68
47 47 47 46 46 46 46 44 43 43 44 47 50 53 57 61 64 68 72 75 78 82 85 88 91 94 97 100 103 106 109 110 109 109 108 108 108 108 108 108 108 107 106 105 104 103 102 101 99 96 94 93 92 91 89 87 85 82 79 77 75 74 72 72 71 70 69 69 68 68 66 64 63 63 63 62 62 63 64 65 68 70 70 69 68 68
46 46 46 45 45 45 45 44 43 42 43 46 49 52 56 60 63 66 70 73 76 80 84 87 90 93 96 99 102 105 107 108 108 107 107 107 108 108 108 108 107 107 106 105 104 103 101 101 100 97 94 92 92 91 89 88 85 83 80 77 75 73 72 71 71 70 70 71 70 67 61 58 58 58 59 59 60 61 63 64 65 67 68 68 68 68
44 44 44 44 44 44 44 43 42 42 43 45 48 51 55 58 62 65 69 72 76 80 83 86 89 92 95 98 101 104 105 106 106 106 106 107 107 107 108 107 107 106 105 104 104 103 101 101 100 98 94 92 91 91 89 88 86 83 81 77 74 73 72 72 72 72 72 74 73 67 58 55 54 55 56 57 58 59 61 63 64 65 66 67 67 67
42 42 43 43 43 43 43 43 42 42 42 44 47 50 53 57 60 64 68 72 76 79 82 85 88 91 93 96 99 102 104 105 105 105 106 106 107 107 107 107 107 106 105 104 104 103 102 99 99 98 95 92 91 90 89 88 86 84 81 77 74 73 73 74 74 74 74 76 74 68 60 54 52 53 54 55 56 58 60 61 62 62 64 65 66 66
40 40 41 41 42 42 42 42 41 41 42 44 46 49 53 56 59 63 67 70 74 77 80 84 86 89 92 95 98 101 103 104 105 105 105 106 106 107 107 107 106 105 105 104 103 103 102 96 96 98 96 93 91 90 89 88 86 84 81 76 74 74 75 75 75 75 76 75 73 69 62 56 53 52 54 55 56 57 58 59 60 61 62 63 63 63
38 38 39 39 40 41 41 41 41 41 41 43 46 49 52 55 59 62 65 68 72 76 80 83 86 88 91 94 97 100 102 104 105 105 106 106 106 106 106 106 106 105 104 104 102 102 101 96 96 99 98 95 92 90 89 88 86 85 81 76 74 74 76 76 76 76 75 73 70 67 63 58 55 54 54 55 56 56 57 58 59 60 60 61 61 61
36 37 37 37 38 39 39 40 40 40 41 42 44 47 51 55 58 61 64 68 72 75 79 82 85 88 90 93 96 99 102 103 104 105 105 106 106 106 106 106 105 104 104 103 102 100 100 99 99 100 100 97 94 91 89 88 87 85 82 77 74 73 75 76 76 76 74 71 67 64 62 59 57 56 56 56 55 55 55 56 57 58 59 59 59 58
34 35 35 35 36 37 38 38 38 39 39 41 43 45 49 53 57 61 64 68 72 75 78 81 84 87 90 92 95 98 101 102 103 104 104 105 105 105 105 105 104 104 103 103 102 101 101 101 101 101 100 98 96 93 90 88 87 86 83 77 73 72 74 75 75 73 71 68 64 62 60 59 58 57 58 57 56 55 55 56 56 56 57 57 58 57
32 33 33 34 34 35 36 37 37 37 39 40 43 46 49 54 57 61 64 68 71 74 78 80 83 86 89 93 95 98 99 101 102 103 104 104 104 105 105 105 104 103 102 101 100 100 101 102 101 100 100 99 97 94 91 88 88 87 84 77 73 71 72 73 72 70 67 64 61 58 57 57 57 58 59 59 58 56 56 56 55 55 56 56 57 57
30 31 31 32 33 34 35 36 36 37 39 41 44 47 51 54 57 60 63 66 70 74 77 80 82 85 88 91 94 96 98 100 101 102 103 103 104 105 105 105 104 103 102 100 99 99 100 101 101 100 99 99 98 95 92 89 88 88 85 78 72 70 71 71 69 67 64 61 58 55 53 53 54 56 59 60 60 59 58 57 56 55 55 55 56 56
29 29 30 31 32 33 34 35 36 37 38 41 43 46 49 52 56 59 62 65 69 72 75 78 82 85 87 90 92 94 97 99 100 101 102 103 104 105 105 104 103 102 101 99 98 98 99 101 101 99 98 98 98 96 93 90 89 89 87 81 74 70 70 70 68 66 64 61 57 53 50 49 50 53 57 60 61 61 60 58 56 55 54 54 54 55
27 28 28 30 31 32 33 34 34 36 38 40 42 45 48 51 55 59 62 65 68 71 74 77 80 83 86 89 91 93 95 97 99 100 101 102 103 104 104 103 102 101 100 98 96 97 98 100 101 100 99 98 98 96 94 91 90 90 89 85 78 73 71 70 69 68 66 63 58 53 49 47 48 51 55 58 60 61 60 58 56 55 55 54 54 54
26 27 27 28 30 31 32 33 34 35 37 39 42 45 49 53 56 59 62 65 68 70 73 77 79 81 83 86 88 91 94 96 98 100 101 102 103 103 103 102 101 100 99 97 95 95 97 99 100 100 99 99 98 96 94 92 91 90 90 89 84 78 74 72 71 70 69 66 61 56 52 49 49 50 53 56 58 58 58 56 54 54 54 56 56 57
25 26 27 28 29 30 31 32 33 34 36 39 42 46 49 53 56 59 61 64 66 69 73 76 79 82 83 84 86 89 92 95 97 99 100 101 102 103 102 102 101 101 99 97 94 93 94 97 100 100 99 98 97 96 95 92 90 90 91 90 88 83 79 76 74 73 72 70 67 62 58 54 52 51 52 53 55 55 54 52 49 49 51 56 61 63
24 25 26 27 28 29 30 31 32 34 36 39 42 45 48 51 54 58 60 63 66 69 72 75 77 80 82 84 87 89 92 94 96 98 99 101 101 102 102 101 101 100 99 97 94 92 92 95 98 100 99 98 97 96 95 92 90 90 90 90 89 86 83 81 79 77 76 75 73 69 65 61 57 55 54 53 52 51 49 46 43 41 43 51 61 68
24 24 26 27 28 28 29 30 32 34 36 39 42 45 48 51 54 57 60 63 66 69 72 74 76 78 80 83 86 88 91 93 95 97 99 100 101 101 101 101 100 99 98 96 92 90 90 93 96 99 99 99 98 96 94 93 91 90 89 88 88 86 85 84 83 81 80 79 77 75 72 69 65 61 58 56 53 50 47 44 40 37 38 44 56 67
23 24 25 26 27 28 29 30 31 33 36 39 42 45 48 51 54 57 60 62 64 67 69 72 75 77 79 81 83 86 89 91 93 95 98 99 100 100 100 100 100 99 97 94 91 89 88 91 95 98 98 98 97 95 95 94 92 90 87 87 86 86 86 85 85 84 83 82 80 78 77 75 73 69 66 62 58 54 51 47 44 40 39 42 50 61
23 24 25 26 27 28 29 30 31 33 36 39 42 45 48 51 54 56 59 61 63 66 68 71 74 77 79 80 82 85 89 91 93 95 97 97 98 99 100 99 99 98 96 92 88 85 85 87 92 96 97 96 95 94 94 94 92 90 86 86 86 86 86 86 86 86 86 84 82 80 79 78 77 75 73 70 66 62 58 55 51 47 44 44 49 57
23 24 24 25 26 27 28 29 31 33 36 39 43 46 49 51 54 57 59 61 63 66 69 72 74 75 77 79 81 85 88 90 93 95 96 96 97 98 99 99 98 97 95 90 85 81 81 84 89 94 95 95 93 93 93 93 92 89 87 86 86 87 86 86 86 86 86 85 83 81 79 78 78 77 76 75 73 70 66 63 59 54 49 47 50 55
22 23 24 25 26 27 28 29 31 33 36 39 42 45 48 51 54 57 59 61 63 65 68 70 71 72 74 76 79 82 86 89 91 93 94 96 97 98 98 98 97 97 95 90 84 80 79 81 87 91 90 90 90 92 93 93 91 89 87 87 86 86 85 84 84 84 85 85 84 82 79 78 77 76 76 76 75 74 72 70 66 60 53 49 50 55
22 23 24 25 26 27 28 29 31 34 37 40 42 45 48 50 53 55 58 60 62 63 65 66 67 70 73 76 78 81 85 88 90 91 93 95 97 97 97 97 97 97 96 92 86 82 79 80 85 89 87 84 85 89 92 92 91 89 88 87 85 84 82 80 80 81 82 83 82 80 78 76 75 74 74 74 74 74 73 71 68 62 55 50 50 53
22 23 24 25 25 27 28 30 32 34 37 40 42 45 48 50 52 55 57 59 60 62 64 66 68 71 74 76 78 81 84 87 89 91 93 94 95 96 97 97 97 97 95 91 87 83 79 79 83 87 89 83 83 86 89 89 90 89 88 86 84 81 79 77 77 77 78 78 77 76 74 73 73 72 72 72 72 71 70 69 65 60 54 50 49 51
22 23 24 24 25 27 28 30 32 34 37 40 43 45 48 50 52 54 57 59 61 63 64 66 69 70 72 74 77 80 83 85 88 90 92 93 94 95 96 96 96 95 93 89 85 81 79 77 80 85 89 86 84 84 86 87 88 88 87 85 82 79 76 75 74 74 73 72 71 70 70 70 70 71 71 70 70 68 67 64 61 57 52 50 50 50
21 22 23 24 25 27 28 30 32 35 38 40 43 45 47 50 52 54 57 59 61 62 64 66 67 68 70 72 76 79 82 84 87 89 91 91 93 95 96 96 95 94 91 86 83 80 78 76 78 82 88 87 85 84 84 85 86 86 85 83 80 78 75 74 73 71 69 66 65 64 66 67 69 70 70 69 68 66 63 60 57 54 51 50 50 50
21 22 23 24 25 27 29 31 33 35 38 40 42 45 47 50 52 54 56 58 60 61 63 65 66 67 70 73 76 79 81 83 86 89 90 90 92 94 95 95 94 93 89 84 81 78 77 75 76 81 86 86 85 83 83 83 84 84 83 81 79 77 75 74 72 69 66 62 60 60 62 64 66 68 69 68 67 65 61 58 55 53 51 50 50 50
20 21 23 24 25 27 29 31 33 35 38 40 42 45 47 49 52 54 55 57 59 61 62 64 65 67 70 72 74 76 79 82 85 88 89 89 91 93 94 94 93 92 88 81 78 76 76 74 76 80 84 85 84 83 82 81 82 82 81 80 78 77 75 74 72 69 66 63 60 59 60 60 62 64 66 66 65 64 61 59 56 53 51 49 48 47
19 21 22 24 26 27 29 31 33 35 38 40 42 44 46 49 51 53 54 56 59 61 62 63 65 66 68 70 72 75 78 81 84 86 87 88 90 92 93 93 93 91 87 80 76 76 76 74 76 79 82 83 83 83 81 80 80 80 79 78 77 76 75 74 73 70 67 66 64 62 59 58 58 59 61 62 63 63 63 61 58 54 51 49 47 45
19 20 22 24 26 27 29 32 34 35 38 40 42 44 46 48 50 52 54 56 58 60 61 63 64 66 68 70 73 76 79 81 83 85 86 88 89 92 93 93 93 91 85 79 77 77 76 74 76 80 81 82 82 82 81 80 79 79 78 78 77 76 76 75 74 72 70 69 67 64 61 59 58 57 58 59 61 63 64 64 61 56 52 49 47 44
18 20 22 24 26 28 30 32 34 36 37 39 41 44 46 48 50 52 54 55 57 59 60 62 63 65 67 70 73 76 78 79 81 83 85 87 88 90 92 94 93 90 84 78 76 75 74 73 75 78 80 81 81 81 81 80 79 78 78 78 77 77 76 75 75 74 73 72 70 68 66 63 60 59 58 58 59 61 64 65 64 61 56 51 47 44
17 19 21 23 25 28 30 32 34 36 37 39 41 43 45 47 49 51 53 55 57 59 60 62 63 64 66 68 71 72 74 77 80 82 84 85 87 90 92 94 93 89 83 77 75 74 73 72 74 77 80 80 81 81 82 81 79 78 77 77 77 77 77 76 76 75 74 73 73 72 70 67 65 63 61 59 58 60 63 66 67 65 61 56 51 46
16 19 21 23 26 28 30 32 34 36 37 39 41 43 45 47 49 51 52 54 56 58 60 62 63 65 66 68 69 71 73 76 79 81 82 84 87 90 92 94 93 90 84 78 75 74 74 73 74 77 81 81 81 81 82 82 80 78 76 74 74 75 77 78 78 77 77 76 74 73 72 70 68 65 63 60 59 60 62 65 67 67 65 62 57 52
16 18 21 23 25 28 30 32 34 36 37 39 41 42 44 46 48 50 52 54 56 58 60 62 63 65 67 68 70 72 74 77 79 80 81 84 87 90 92 94 94 92 86 80 76 75 75 74 75 79 81 81 82 82 82 82 81 77 72 69 68 70 74 77 79 79 79 78 76 73 71 69 67 65 62 60 60 60 62 64 65 65 65 64 61 58
15 18 20 23 25 28 30 32 34 35 37 39 40 42 44 46 48 50 52 54 56 57 59 61 63 64 66 68 70 72 74 76 77 79 81 84 86 90 93 96 96 94 90 83 77 74 74 74 75 77 79 80 81 82 81 81 80 76 70 63 61 64 68 73 77 79 79 79 77 74 71 68 65 62 61 60 60 60 61 62 62 62 62 62 61 59
15 18 20 23 25 28 30 32 34 35 37 39 40 42 44 45 47 49 51 53 55 57 59 61 62 64 65 67 68 70 72 74 76 78 81 83 86 90 94 97 98 97 93 85 78 73 73 73 75 77 79 79 79 80 80 81 80 76 69 61 58 60 64 68 72 75 77 77 77 75 72 69 65 62 60 59 59 60 60 60 60 60 60 59 59 57
14 17 20 22 25 28 30 32 34 35 37 39 40 42 43 45 47 49 51 53 54 56 58 60 62 64 65 66 67 69 71 73 76 78 80 83 86 91 95 98 99 98 94 87 80 74 72 74 76 78 79 78 76 76 78 80 80 77 71 63 57 58 64 67 69 70 71 73 74 74 72 70 66 63 60 59 59 59 59 58 58 58 58 57 56 55
14 17 20 22 25 28 30 32 34 35 37 38 40 41 43 44 46 48 50 52 54 55 57 59 61 63 65 66 67 69 71 73 76 78 80 83 87 91 96 98 99 97 93 88 82 76 73 74 77 79 79 78 75 73 76 79 79 77 74 67 59 55 59 64 66 66 68 69 70 71 70 69 66 63 61 59 57 57 56 56 56 56 56 55 54 53
13 16 19 22 25 28 30 32 34 35 37 38 40 41 42 44 46 47 49 51 52 54 56 57 59 61 63 64 66 68 70 72 74 76 78 82 86 91 95 98 97 94 91 87 82 77 73 74 77 79 79 78 76 75 78 79 78 77 76 72 66 62 61 64 66 66 66 66 67 68 69 68 66 64 61 58 56 55 54 54 53 54 53 53 52 52
13 16 19 22 25 28 30 32 34 35 37 38 39 41 42 44 45 47 48 50 51 53 54 56 57 59 60 62 64 66 68 70 72 74 77 81 85 90 94 96 95 92 88 86 82 78 74 74 76 78 80 80 80 79 80 80 77 76 77 79 78 74 68 66 67 67 65 65 66 67 67 67 66 64 61 58 56 53 52 51 51 52 52 51 51 51
13 16 19 22 25 28 30 32 34 35 37 38 39 41 42 43 45 46 48 49 51 52 54 56 57 59 60 61 63 64 66 68 71 73 76 79 83 88 93 95 95 92 89 86 82 79 75 74 75 78 81 83 84 84 82 80 76 74 77 82 83 80 73 69 66 64 63 63 64 65 66 66 66 65 62 59 56 54 52 51 51 52 52 52 51 51
13 16 19 22 25 28 30 32 34 35 37 38 39 40 41 43 44 45 47 48 50 51 53 55 56 58 59 61 62 63 65 67 69 72 74 77 81 86 90 93 95 94 91 88 84 80 76 73 74 76 79 82 84 84 83 80 78 77 80 82 82 79 74 69 64 61 58 59 60 61 63 64 64 64 62 59 56 54 53 53 54 54 54 53 53 52
13 16 19 22 25 28 30 32 34 35 37 38 39 40 41 42 43 45 46 47 49 50 52 53 55 56 57 59 61 62 63 65 67 69 72 75 78 82 87 90 93 93 92 90 86 82 77 73 72 74 77 80 82 82 81 80 81 81 82 80 78 75 72 67 63 59 56 55 56 58 59 60 61 61 60 59 57 56 56 56 57 57 56 55 54 53
14 16 19 22 25 28 30 32 33 35 36 38 39 40 41 42 43 44 45 47 48 49 51 52 53 55 56 58 59 60 61 63 64 67 69 72 75 79 83 86 89 91 91 89 87 83 77 73 71 71 74 77 80 81 81 81 81 82 80 77 73 71 69 65 61 58 56 55 55 56 57 58 58 59 59 59 59 59 59 60 60 59 57 55 54 52
14 16 19 22 25 27 30 32 33 35 36 37 39 40 41 42 43 44 45 46 47 48 50 51 52 54 55 57 58 59 60 61 63 65 67 70 73 76 80 83 87 89 89 89 87 83 78 73 69 69 71 75 79 80 81 81 81 79 77 74 72 69 67 64 61 58 57 56 56 57 58 59 60 61 62 62 62 62 63 63 62 61 58 56 53 51
14 16 19 21 24 27 29 31 33 35 36 37 38 39 40 41 42 43 44 45 46 47 48 50 51 52 53 55 56 58 59 60 62 64 66 69 72 75 78 82 85 86 88 89 88 84 78 72 69 68 70 74 77 80 80 79 78 77 75 74 72 70 68 66 63 59 57 57 59 61 63 64 65 66 66 66 66 66 66 66 64 62 59 56 53 51
15 17 19 21 24 26 29 31 33 34 36 37 38 39 40 41 42 43 44 44 46 47 48 49 50 51 52 53 55 56 57 59 60 62 64 67 70 72 75 79 81 83 85 87 87 84 78 73 69 69 70 73 75 78 78 77 76 75 75 74 73 72 70 68 64 61 58 59 62 66 68 70 71 71 71 70 69 68 67 66 63 61 57 55 53 51
15 17 19 21 23 26 28 31 32 34 35 37 38 39 39 40 41 42 43 44 45 46 47 48 49 50 51 52 54 54 55 56 58 59 62 64 66 68 70 73 75 78 81 84 85 83 78 73 69 68 70 71 74 76 77 77 76 75 75 75 75 74 72 69 66 63 61 62 64 66 68 70 71 71 70 69 67 64 63 61 59 57 56 54 53 53
16 17 19 21 23 26 28 30 32 33 35 36 37 38 39 40 40 41 42 43 44 45 46 47 48 49 50 52 53 54 55 56 57 58 59 61 62 64 66 68 70 73 76 80 82 82 78 73 69 67 68 70 72 75 77 77 77 76 76 76 76 75 73 71 69 67 65 64 63 63 64 65 65 63 62 61 60 59 58 58 57 57 56 56 55 55
Wind_Direction
233 234 235 236 236 237 236 234 231 228 224 220 218 216 214 213 211 210 210 209 208 207 207 206 206 206 205 205 204 203 202 201 201 201 201 201 201 201 202 202 202 202 202 202 202 202 202 202 203 204 206 207 207 207 207 206 206 206 207 208 208 210 211 213 214 216 218 219 221 222 224 224 222 218 217 220 223 224 222 221 220 219 219 219 220 221
233 234 235 236 237 237 237 235 231 227 223 220 217 215 214 212 211 210 209 209 208 207 207 206 206 205 205 204 203 202 201 201 201 201 201 201 201 201 201 202 202 202 202 202 202 202 202 202 202 203 205 206 207 207 206 206 205 206 206 207 208 209 211 213 214 216 217 219 220 222 223 222 220 218 218 220 222 224 224 222 220 219 218 218 219 220
233 234 235 236 237 237 237 235 231 227 223 219 217 215 213 212 211 210 209 208 208 207 206 206 205 205 205 204 203 202 201 201 201 201 201 201 201 201 201 202 202 202 202 202 202 202 202 202 202 203 204 206 207 207 206 205 205 205 207 207 208 210 211 212 214 215 217 218 220 221 221 221 220 218 218 219 221 223 224 223 221 219 217 217 218 219
233 234 235 236 237 237 237 235 231 227 222 219 217 215 213 211 210 209 208 208 207 207 206 206 205 205 204 204 203 202 201 200 200 200 200 200 200 201 201 201 202 202 202 202 202 203 203 202 201 202 204 205 206 206 206 205 205 206 207 208 208 210 211 212 213 214 215 217 219 220 221 221 219 218 218 219 221 222 223 223 220 218 216 216 217 218
234 235 235 236 237 237 237 235 231 227 222 219 216 214 213 211 210 209 208 207 206 206 206 205 205 205 204 203 203 202 201 200 200 200 200 200 200 200 201 201 202 202 202 202 202 203 203 202 202 202 203 205 206 206 206 205 205 206 207 208 208 209 210 211 212 213 214 215 217 218 218 217 215 214 216 218 220 221 221 221 219 217 215 215 216 217
235 235 235 236 237 237 236 234 231 226 222 218 216 214 212 210 209 208 207 206 206 205 205 205 205 204 204 203 203 202 201 200 199 199 200 200 200 200 201 201 201 201 201 201 202 202 203 202 202 201 202 204 206 206 206 205 205 206 207 207 208 209 209 210 210 211 212 214 214 214 213 211 209 210 213 215 218 219 219 219 218 216 215 215 215 217
235 235 235 236 236 236 236 234 230 225 221 218 215 213 212 210 208 207 206 206 205 205 205 204 204 204 204 203 202 201 200 200 199 199 200 200 200 200 200 201 201 201 201 201 202 202 203 203 202 201 202 204 206 206 206 205 205 206 206 207 207 208 208 208 209 210 211 212 213 212 210 207 206 207 210 213 215 216 217 217 216 215 214 215 215 216
235 235 235 235 235 235 235 233 229 224 220 217 215 213 211 209 208 206 205 205 204 204 204 204 204 204 203 203 202 201 200 199 199 199 200 200 200 200 200 201 201 201 201 201 202 202 203 202 201 201 201 203 205 206 206 205 205 205 206 206 207 208 208 208 208 209 210 211 212 212 212 209 207 207 209 212 214 215 216 216 215 214 214 215 215 216
234 234 234 234 234 234 233 231 228 223 219 216 214 212 210 208 207 206 205 204 204 203 203 203 203 203 203 203 202 200 199 198 198 199 199 199 200 200 200 200 201 201 201 201 202 203 203 202 201 200 201 202 204 205 205 205 205 205 205 205 206 208 208 208 209 209 211 212 212 213 214 213 210 209 209 211 213 215 216 215 215 215 215 215 216 216
234 234 234 233 233 232 231 229 226 222 218 215 213 210 209 207 206 205 204 203 203 203 203 203 203 203 203 202 201 200 199 198 198 198 199 199 199 200 200 200 200 201 201 201 202 203 203 203 202 201 201 202 203 204 205 205 204 204 204 204 206 207 208 208 209 211 212 214 215 216 216 215 213 211 211 211 212 213 214 214 215 215 215 216 216 217
233 233 233 232 231 230 229 227 224 220 217 214 212 210 208 206 204 203 203 202 202 202 202 202 202 202 202 202 201 200 199 198 198 198 198 198 199 199 199 200 200 200 201 201 202 203 203 203 203 202 201 201 202 204 204 204 204 203 203 204 205 206 207 208 210 211 213 215 216 217 217 216 214 213 212 212 211 211 212 213 214 215 215 216 217 217
232 232 231 230 230 229 227 225 223 219 216 213 211 209 207 205 204 202 202 201 201 201 201 201 202 202 202 201 201 200 198 198 198 198 198 198 198 199 199 199 200 200 200 201 202 203 204 204 203 202 202 201 202 203 203 204 203 202 202 203 204 204 205 207 209 211 213 215 215 215 216 216 216 214 213 212 211 210 211 212 213 214 215 216 216 217
231 231 230 229 227 226 225 223 220 217 214 211 209 207 205 204 203 202 201 200 200 200 200 201 201 201 201 201 200 199 198 197 197 197 198 198 198 198 199 199 199 200 200 201 202 203 204 204 204 203 202 202 202 202 203 204 203 202 202 202 202 202 203 205 207 209 210 211 211 212 213 215 215 215 214 213 211 211 211 211 213 214 215 216 217 217
230 229 228 226 225 224 223 221 218 215 212 209 207 205 203 202 201 200 200 200 199 200 200 200 201 201 201 201 199 198 197 197 197 197 197 198 198 198 198 199 199 199 200 201 202 204 205 205 204 203 203 203 202 202 202 203 203 202 201 202 201 200 200 202 204 205 205 206 207 208 210 212 214 214 214 213 212 211 211 212 213 214 216 217 218 219
228 227 225 224 223 222 220 218 216 213 210 207 205 204 202 201 200 199 199 199 199 199 200 200 200 200 200 200 199 198 197 197 197 197 197 197 198 198 198 198 198 199 199 200 202 204 205 205 205 204 203 203 202 202 202 203 203 202 202 202 200 198 198 199 200 201 201 202 203 205 207 209 212 213 213 212 212 212 212 213 215 216 217 218 219 220
226 224 223 221 220 219 218 216 214 211 209 206 204 202 201 199 199 198 198 198 198 199 199 200 200 200 200 199 198 197 197 197 197 197 197 197 198 198 198 198 198 198 199 199 201 204 206 206 206 205 204 203 203 202 202 203 203 203 203 203 202 200 198 198 199 199 200 202 203 204 205 207 210 211 211 211 210 211 212 214 216 218 219 220 220 221
223 221 220 218 217 216 215 214 212 209 206 204 202 200 199 198 198 197 197 197 197 198 198 199 199 199 199 199 198 197 197 197 197 197 197 197 197 197 197 197 197 198 198 199 201 204 206 207 206 205 204 204 203 203 202 203 203 204 204 206 205 203 201 201 201 201 203 204 205 205 206 206 207 208 208 208 208 209 211 213 216 218 220 221 222 222
220 218 216 215 214 214 213 211 209 207 204 202 200 199 198 197 197 196 196 196 196 197 198 198 198 198 198 198 197 197 197 197 197 197 197 197 197 197 197 197 197 197 197 198 200 203 206 207 207 206 205 204 204 203 203 203 203 204 206 208 208 208 206 205 204 205 206 207 208 208 208 208 207 206 205 205 205 206 208 211 214 217 221 221 221 221
216 215 213 212 212 211 210 208 206 204 202 200 199 198 197 196 196 195 195 195 196 196 197 197 197 197 197 197 197 197 196 196 196 196 196 196 196 196 196 197 197 197 197 197 199 203 206 208 207 206 205 204 204 204 203 203 204 205 206 208 210 211 210 209 209 209 210 211 212 212 212 211 210 208 207 206 205 206 208 210 213 217 221 222 220 219
213 212 211 210 209 208 207 206 204 202 199 198 197 196 195 195 194 194 194 194 195 196 196 196 196 196 196 196 196 196 196 196 196 196 196 196 196 196 196 196 197 197 197 197 199 202 205 208 208 207 206 205 204 204 204 204 204 205 207 209 211 212 213 213 212 212 213 214 216 216 216 215 214 213 212 212 211 212 212 214 217 221 226 226 222 218
210 209 208 208 207 206 204 203 201 200 198 196 195 194 194 193 193 193 193 193 194 195 195 195 195 196 196 196 196 196 196 196 196 196 196 195 196 196 196 196 196 196 196 197 199 202 205 208 208 208 206 205 204 204 204 204 205 205 206 208 211 213 214 214 214 214 215 217 219 220 219 219 219 219 218 218 218 218 219 220 223 228 232 232 225 219
207 206 205 205 204 203 202 200 199 197 195 194 194 193 193 192 192 192 192 192 193 194 194 194 195 195 195 195 195 196 196 196 196 196 195 195 195 195 196 196 196 196 195 196 198 202 205 208 209 208 206 205 204 204 205 205 205 205 206 208 210 212 213 214 215 215 216 218 220 222 222 222 222 222 223 223 224 224 224 225 228 231 236 235 227 218
204 203 202 202 202 201 200 198 196 194 193 192 192 192 192 191 191 191 191 191 192 193 193 194 194 194 194 194 195 195 195 195 195 195 195 195 195 195 195 195 195 195 194 195 197 201 204 208 209 208 206 205 204 204 205 205 205 205 207 208 210 211 212 214 215 215 216 218 220 222 223 224 225 225 226 227 227 228 228 229 230 233 236 236 227 217
201 200 200 199 199 198 196 195 193 192 191 191 191 191 191 190 190 190 190 191 191 192 193 193 193 193 193 193 194 194 195 195 195 195 195 194 194 195 195 195 195 195 194 194 196 199 203 207 208 208 205 204 204 205 205 206 206 206 208 209 210 211 212 213 215 216 217 219 221 223 224 225 226 227 228 228 229 230 231 232 232 234 237 235 225 215
198 197 197 196 196 195 193 192 191 190 189 190 190 190 189 189 189 189 189 190 190 191 192 192 191 191 192 193 193 194 195 195 195 195 194 194 194 194 194 194 194 194 194 194 196 199 202 206 208 207 204 203 203 204 205 206 206 207 209 210 211 211 212 213 214 216 218 219 221 223 224 225 226 227 228 228 229 230 232 233 233 234 236 232 222 213
195 194 194 194 193 192 190 189 188 188 188 188 188 188 188 188 188 188 188 189 189 190 190 190 190 191 192 192 193 193 194 195 195 194 194 194 194 194 194 194 194 194 194 195 197 200 203 205 208 208 206 204 204 204 205 206 207 208 209 210 211 211 212 213 214 215 217 219 220 222 224 225 226 227 227 228 229 230 231 232 232 233 233 227 217 209
193 192 191 191 190 189 188 187 186 186 186 186 187 187 187 187 187 187 187 188 189 189 189 190 190 190 190 191 191 193 194 194 194 194 194 194 194 194 194 194 194 193 193 194 197 200 202 205 207 208 207 206 205 205 205 206 207 208 209 210 210 210 211 212 213 214 216 217 219 221 223 225 226 226 227 227 227 228 229 229 229 229 227 220 211 206
191 190 189 188 187 186 185 185 184 185 185 185 186 186 186 186 186 186 187 187 188 188 188 189 189 189 189 190 191 192 193 194 194 194 194 194 194 193 193 193 193 192 192 193 196 199 201 203 205 207 207 206 206 205 205 206 207 208 209 209 210 210 211 212 213 213 214 216 218 220 223 224 225 225 225 225 225 225 225 225 224 222 219 212 206 203
189 188 187 186 185 184 183 183 183 183 184 184 184 185 185 185 185 186 187 187 187 187 188 188 188 188 188 189 191 192 192 193 194 194 194 193 193 193 193 193 192 191 190 193 195 197 199 201 204 206 207 206 205 205 205 206 207 208 209 209 210 211 211 212 212 213 213 214 215 218 221 222 223 223 223 222 222 221 220 218 217 216 213 207 202 200
187 186 185 184 183 182 182 182 182 182 182 183 183 183 184 184 185 185 186 186 186 187 187 187 187 187 188 189 190 191 192 193 194 194 193 193 193 193 193 192 191 190 190 191 193 195 196 198 202 205 206 206 205 205 205 205 207 208 209 209 210 210 211 211 211 211 211 211 211 213 216 216 217 218 218 218 217 215 213 211 210 211 209 205 201 199
185 185 184 182 182 181 181 180 180 180 181 181 182 182 183 183 184 184 185 185 186 186 186 186 186 186 187 188 189 190 191 193 193 193 193 193 193 193 192 191 190 189 189 190 191 192 193 195 200 204 205 205 205 204 205 205 206 207 208 209 209 210 210 211 210 210 209 209 209 209 208 209 210 211 212 212 211 209 207 206 206 207 207 205 202 199
184 183 182 181 180 180 179 179 179 179 179 180 181 181 182 182 183 183 184 184 185 185 185 185 185 186 187 188 189 190 191 192 193 193 193 193 193 192 191 190 188 188 188 189 190 190 190 192 198 203 204 205 204 204 204 205 206 207 207 208 209 209 210 210 210 209 208 208 208 207 205 206 206 207 208 208 207 206 204 203 204 205 206 206 204 201
183 182 181 180 179 178 178 178 177 177 178 178 179 180 181 181 182 182 183 183 184 184 184 184 184 185 186 187 188 190 191 191 192 192 193 193 192 192 191 189 188 187 187 188 189 189 189 191 196 201 203 204 204 204 204 205 206 206 207 207 208 208 208 209 210 210 209 209 208 207 207 206 206 207 208 208 208 206 205 205 205 206 207 208 207 205
181 181 180 179 178 177 177 176 176 176 176 177 178 179 180 180 181 181 182 182 183 183 183 184 184 185 186 187 188 189 190 191 191 192 192 192 192 191 190 189 187 186 186 186 187 187 188 190 194 198 202 203 203 203 204 205 206 206 207 207 208 208 208 208 209 210 211 210 210 210 210 211 211 211 211 212 211 210 209 209 209 209 210 211 211 210
181 180 179 178 177 176 175 175 175 175 175 175 176 177 178 179 180 181 181 182 182 183 183 183 183 184 185 186 187 189 190 191 191 192 192 192 192 191 190 188 187 186 186 185 184 185 186 189 193 198 201 202 202 203 203 204 205 206 206 207 208 209 209 209 209 210 211 211 212 213 214 215 215 216 216 216 215 214 214 213 213 214 215 216 216 216
179 179 178 176 175 174 174 174 173 173 173 174 175 176 177 178 179 180 180 181 182 182 183 183 183 184 185 185 187 188 189 190 191 191 191 191 191 190 189 187 186 186 186 184 183 183 184 186 191 196 200 201 202 202 203 203 204 204 205 207 209 211 212 212 212 212 212 213 214 216 216 217 218 218 219 218 217 216 215 216 217 217 218 219 219 220
177 177 176 175 174 173 173 172 172 172 172 173 174 175 176 177 178 179 180 180 181 182 183 183 183 184 184 185 186 187 189 190 190 191 191 191 191 190 188 187 187 187 187 185 182 182 183 184 188 193 198 201 202 203 203 204 204 204 204 205 207 210 212 214 215 215 215 215 216 217 218 218 218 218 218 217 216 215 216 216 218 219 220 221 221 222
174 175 174 173 172 171 171 171 171 171 171 171 172 174 175 176 177 178 179 180 181 182 182 183 184 184 184 185 186 188 189 189 190 190 191 191 191 190 189 188 188 189 188 186 184 183 183 184 187 192 197 201 203 203 204 205 205 204 202 200 197 197 201 206 211 214 216 216 217 218 218 218 218 218 217 216 215 215 216 217 218 219 220 221 222 223
171 172 172 171 170 170 169 169 169 169 169 170 171 173 174 175 176 177 178 179 180 181 182 183 184 184 185 185 186 187 189 189 190 190 191 191 190 190 189 190 191 191 191 189 187 186 185 185 188 192 196 199 200 202 204 204 204 202 199 196 193 192 196 200 203 207 210 213 215 216 217 218 218 217 217 217 216 216 217 217 219 220 221 222 223 224
166 169 169 169 168 168 168 168 168 168 168 169 170 171 173 174 175 176 178 179 180 181 182 183 184 184 185 185 186 187 188 190 190 191 191 191 190 190 190 191 193 194 194 192 190 188 187 186 188 192 195 195 195 197 201 203 202 199 197 196 196 196 199 201 203 204 206 209 212 214 215 216 217 217 217 217 217 217 218 218 220 221 222 223 223 223
161 165 167 167 166 166 166 166 166 167 167 168 169 170 171 173 174 175 177 178 179 180 182 183 184 184 185 186 186 187 188 189 190 191 191 191 191 191 191 192 194 195 196 195 192 189 187 187 188 190 193 192 192 194 199 201 200 199 198 199 200 202 205 208 209 209 209 210 211 213 214 215 216 217 217 218 218 218 219 219 221 222 223 223 223 223
155 160 163 164 164 164 164 165 165 166 166 167 168 169 170 172 173 174 176 177 178 180 181 182 183 184 185 186 187 188 188 189 190 191 191 191 191 191 192 193 194 196 197 195 193 190 188 187 187 189 191 191 192 194 198 199 199 199 200 202 203 205 208 211 214 216 215 214 214 215 216 216 217 217 218 218 218 219 219 220 220 221 221 220 220 220
149 156 160 162 162 163 163 164 164 164 165 166 167 168 169 171 172 173 175 176 178 179 180 182 183 184 185 186 187 188 188 189 190 191 191 191 192 192 192 193 194 196 197 196 194 191 189 187 187 187 189 192 194 196 198 197 196 198 201 204 205 207 210 214 218 221 221 219 218 217 217 217 217 218 218 218 219 220 220 219 218 218 217 217 216 216
144 153 157 160 161 162 162 162 163 163 164 165 166 167 168 170 171 173 174 176 177 179 180 181 183 184 185 186 186 187 188 189 190 191 191 192 192 192 193 193 194 196 198 197 195 192 190 188 187 187 189 192 195 197 198 197 197 199 203 205 206 208 210 214 218 220 221 220 219 219 218 218 218 218 218 218 219 220 219 217 215 214 213 213 213 212
140 149 155 158 159 160 161 162 162 163 163 164 165 166 167 169 170 172 173 175 177 178 180 181 182 184 185 186 186 187 188 189 190 191 191 192 192 193 194 194 196 197 199 198 196 193 191 189 188 187 188 191 195 197 198 197 199 202 205 205 206 207 210 211 212 213 214 216 218 218 218 218 217 217 218 218 219 218 217 214 212 210 210 210 210 210
137 146 152 156 158 160 161 161 161 162 163 163 164 165 167 168 170 171 173 174 176 177 179 181 182 183 185 186 187 187 188 189 190 191 192 192 193 194 195 196 197 199 201 200 197 194 192 190 189 187 187 189 193 196 198 198 200 203 204 205 205 206 207 208 207 207 208 211 215 218 219 218 218 218 218 219 218 217 214 212 209 208 208 208 208 207
132 143 150 155 157 159 160 161 161 161 162 163 164 165 166 167 169 170 172 174 175 177 178 180 181 183 184 186 187 188 189 190 191 191 192 193 194 195 196 197 199 201 202 200 197 195 193 191 190 188 186 187 191 194 198 200 201 203 203 203 203 204 204 204 204 204 205 208 213 218 220 220 218 218 218 218 217 214 212 210 208 207 206 206 206 206
129 140 148 153 157 158 159 160 161 161 162 162 163 164 166 167 168 170 171 173 175 176 177 179 181 182 184 185 186 188 189 190 191 192 193 194 195 196 197 199 201 202 203 201 198 195 194 193 190 188 186 187 189 192 197 200 202 202 202 201 201 201 202 203 202 202 202 205 209 213 216 217 216 215 214 213 212 211 209 208 207 206 205 205 205 206
129 138 146 152 156 158 159 160 160 161 162 162 163 164 165 167 168 169 171 172 174 175 177 179 180 182 183 184 186 187 189 190 192 193 195 196 197 198 199 201 203 204 204 202 199 197 195 194 191 188 187 186 187 190 195 198 200 201 201 200 200 200 201 201 201 201 202 203 204 206 207 208 208 208 207 206 206 205 205 205 205 205 205 206 207 208
128 136 144 150 155 157 159 160 160 161 162 162 163 164 165 166 168 169 171 172 173 175 177 178 180 181 183 184 186 187 188 190 192 194 195 197 198 199 201 203 204 205 205 204 202 200 199 197 194 190 188 187 187 188 191 195 198 199 199 199 199 199 200 200 201 202 202 202 202 201 200 199 198 199 200 201 202 203 205 206 207 207 209 210 211 211
125 134 142 149 153 157 159 160 160 161 162 162 163 164 165 166 167 169 170 172 173 175 176 178 179 181 182 184 185 187 188 190 192 193 195 197 198 199 200 202 204 205 206 206 205 204 203 201 198 194 190 188 187 187 189 192 195 196 197 197 198 198 198 199 200 201 202 202 201 199 197 196 196 198 200 201 203 205 207 209 210 212 213 214 214 213
Height
5322 5325 5327 5330 5333 5335 5338 5340 5344 5347 5350 5353 5356 5360 5364 5368 5373 5377 5382 5387 5393 5399 5405 5411 5417 5424 5431 5439 5448 5457 5466 5475 5482 5489 5496 5503 5510 5518 5525 5532 5539 5546 5554 5561 5569 5575 5582 5589 5595 5601 5607 5612 5618 5623 5629 5634 5640 5645 5650 5653 5657 5662 5667 5671 5676 5680 5684 5688 5691 5695 5699 5702 5705 5709 5712 5715 5718 5720 5719 5722 5725 5726 5730 5734 5738 5742
5320 5322 5325 5327 5330 5333 5335 5338 5341 5344 5347 5350 5353 5357 5360 5365 5370 5374 5379 5384 5390 5395 5401 5407 5414 5420 5428 5436 5445 5454 5463 5471 5478 5485 5492 5499 5506 5514 5520 5527 5535 5542 5550 5557 5565 5571 5578 5584 5591 5597 5603 5609 5614 5620 5625 5631 5637 5642 5646 5650 5654 5659 5664 5668 5672 5677 5681 5685 5689 5693 5696 5701 5705 5708 5710 5711 5715 5718 5718 5720 5721 5723 5727 5731 5735 5739
5318 5320 5323 5325 5327 5330 5333 5335 5338 5341 5344 5347 5350 5354 5358 5362 5366 5371 5376 5381 5387 5393 5399 5405 5412 5419 5426 5434 5442 5450 5458 5466 5473 5480 5488 5495 5503 5510 5517 5524 5531 5539 5546 5554 5561 5567 5574 5580 5586 5593 5599 5605 5610 5616 5622 5628 5633 5638 5642 5646 5651 5656 5660 5665 5669 5674 5678 5682 5686 5690 5693 5697 5700 5703 5706 5708 5710 5712 5714 5717 5718 5719 5723 5727 5731 5735
5315 5318 5320 5322 5325 5327 5330 5333 5335 5338 5341 5345 5348 5351 5355 5359 5363 5368 5373 5378 5384 5390 5397 5404 5410 5417 5424 5431 5438 5445 5452 5460 5468 5476 5484 5492 5499 5507 5514 5521 5528 5536 5543 5550 5558 5564 5570 5576 5583 5590 5596 5602 5607 5613 5619 5625 5630 5635 5639 5643 5648 5653 5657 5662 5666 5670 5675 5679 5683 5686 5689 5692 5695 5698 5702 5704 5705 5707 5711 5713 5714 5715 5720 5724 5728 5732
5313 5315 5318 5320 5323 5325 5327 5330 5333 5336 5339 5342 5345 5349 5352 5356 5360 5365 5370 5375 5381 5388 5395 5401 5408 5415 5421 5427 5434 5441 5448 5455 5463 5472 5480 5489 5496 5504 5511 5518 5525 5533 5541 5548 5554 5561 5567 5573 5580 5586 5593 5599 5604 5610 5616 5621 5627 5631 5636 5640 5645 5650 5654 5659 5663 5667 5672 5676 5680 5683 5685 5688 5691 5695 5698 5701 5703 5705 5707 5710 5712 5714 5716 5721 5725 5729
5310 5313 5315 5318 5320 5322 5325 5328 5331 5334 5337 5340 5343 5346 5349 5353 5357 5362 5368 5374 5380 5386 5392 5398 5404 5410 5417 5423 5430 5437 5446 5455 5463 5471 5480 5487 5494 5501 5508 5515 5523 5530 5538 5545 5551 5557 5564 5570 5576 5583 5590 5595 5601 5607 5613 5618 5624 5628 5633 5637 5642 5647 5651 5655 5660 5664 5669 5673 5676 5679 5680 5684 5688 5692 5695 5699 5702 5704 5705 5707 5710 5712 5714 5718 5722 5726
5308 5311 5314 5316 5318 5320 5323 5326 5328 5331 5335 5337 5340 5343 5346 5350 5355 5360 5365 5371 5377 5383 5389 5395 5401 5407 5413 5420 5427 5435 5445 5455 5464 5472 5479 5485 5491 5498 5505 5512 5520 5527 5534 5541 5548 5554 5561 5567 5573 5579 5586 5592 5598 5604 5609 5615 5620 5625 5630 5635 5639 5644 5648 5652 5657 5661 5665 5669 5673 5675 5677 5680 5684 5689 5694 5697 5699 5700 5702 5702 5705 5708 5712 5716 5720 5723
5306 5309 5312 5314 5316 5318 5321 5324 5326 5329 5332 5335 5338 5341 5345 5349 5353 5358 5362 5368 5373 5379 5385 5392 5398 5405 5411 5418 5426 5434 5443 5452 5461 5468 5475 5481 5488 5495 5502 5509 5516 5524 5531 5538 5545 5551 5557 5563 5569 5575 5582 5589 5595 5600 5606 5612 5617 5622 5626 5631 5636 5640 5645 5649 5654 5658 5662 5665 5669 5671 5674 5676 5680 5685 5690 5694 5696 5697 5698 5700 5703 5706 5710 5714 5718 5721
5305 5307 5309 5311 5314 5316 5319 5321 5324 5327 5330 5333 5336 5339 5343 5347 5351 5355 5360 5365 5371 5377 5383 5390 5397 5403 5410 5417 5424 5432 5440 5448 5455 5462 5470 5477 5484 5492 5499 5506 5514 5521 5528 5535 5542 5548 5554 5560 5566 5572 5579 5585 5591 5597 5603 5609 5614 5619 5624 5629 5633 5637 5642 5646 5650 5655 5659 5662 5665 5668 5670 5673 5677 5681 5685 5690 5692 5694 5695 5698 5701 5705 5708 5712 5715 5719
5303 5305 5307 5310 5312 5314 5316 5319 5322 5325 5327 5330 5333 5336 5340 5344 5348 5353 5358 5364 5370 5375 5381 5388 5395 5401 5408 5414 5421 5428 5436 5443 5450 5458 5465 5473 5481 5489 5496 5503 5511 5518 5526 5533 5539 5546 5552 5557 5563 5569 5575 5582 5588 5594 5600 5606 5611 5615 5621 5625 5630 5634 5639 5643 5647 5651 5655 5658 5661 5664 5668 5670 5674 5678 5682 5687 5689 5690 5693 5696 5700 5703 5706 5710 5713 5716
5301 5303 5305 5308 5310 5313 5315 5317 5320 5323 5325 5328 5331 5335 5338 5342 5346 5351 5356 5361 5367 5373 5379 5385 5392 5398 5405 5411 5418 5425 5432 5440 5447 5455 5462 5470 5477 5485 5493 5500 5508 5516 5523 5530 5537 5543 5549 5554 5560 5566 5572 5578 5585 5591 5597 5602 5607 5612 5618 5622 5627 5631 5635 5640 5644 5648 5652 5655 5659 5662 5665 5668 5671 5675 5679 5683 5685 5688 5691 5695 5698 5701 5704 5707 5710 5713
5300 5302 5304 5306 5308 5311 5313 5316 5318 5321 5324 5327 5330 5334 5337 5341 5345 5349 5353 5358 5364 5370 5376 5383 5388 5395 5401 5408 5415 5422 5430 5438 5446 5453 5460 5468 5475 5483 5490 5498 5506 5514 5521 5527 5534 5540 5545 5551 5557 5562 5568 5575 5581 5588 5594 5599 5604 5609 5615 5620 5624 5628 5632 5637 5641 5645 5649 5653 5656 5660 5663 5666 5669 5672 5675 5680 5683 5685 5689 5693 5696 5699 5702 5705 5708 5711
5299 5300 5302 5305 5307 5309 5311 5314 5317 5320 5323 5325 5328 5331 5334 5338 5342 5346 5351 5355 5361 5367 5374 5380 5386 5392 5398 5404 5411 5420 5429 5437 5444 5451 5459 5466 5474 5481 5489 5496 5504 5512 5518 5525 5532 5538 5543 5548 5554 5559 5565 5572 5578 5585 5590 5596 5601 5606 5611 5616 5620 5625 5629 5634 5638 5642 5647 5650 5654 5657 5660 5664 5666 5669 5673 5677 5680 5683 5687 5691 5694 5697 5700 5703 5706 5709
5297 5299 5301 5303 5305 5307 5310 5312 5315 5317 5320 5322 5325 5327 5330 5335 5340 5345 5350 5355 5360 5366 5371 5376 5383 5390 5396 5402 5410 5419 5427 5435 5442 5449 5456 5464 5471 5478 5485 5494 5501 5509 5515 5523 5530 5536 5540 5545 5551 5557 5562 5569 5575 5581 5587 5592 5598 5603 5609 5613 5618 5622 5626 5631 5635 5640 5644 5648 5651 5655 5658 5661 5664 5667 5670 5674 5677 5681 5685 5689 5692 5695 5698 5701 5704 5706
5296 5298 5300 5302 5304 5306 5308 5310 5313 5315 5318 5320 5323 5326 5330 5335 5339 5344 5349 5355 5360 5365 5370 5375 5380 5387 5394 5402 5411 5419 5426 5433 5440 5448 5455 5462 5468 5475 5482 5490 5498 5505 5513 5521 5528 5533 5537 5542 5548 5554 5559 5566 5572 5578 5584 5589 5595 5600 5605 5610 5614 5619 5623 5628 5632 5637 5641 5645 5648 5652 5655 5658 5661 5664 5667 5671 5675 5679 5683 5686 5690 5693 5696 5699 5702 5705
5295 5296 5298 5300 5302 5305 5307 5309 5311 5314 5317 5320 5323 5327 5331 5335 5339 5343 5347 5352 5357 5363 5369 5375 5380 5386 5393 5401 5410 5418 5425 5432 5440 5447 5454 5460 5466 5473 5481 5489 5497 5505 5513 5520 5526 5531 5535 5540 5545 5551 5556 5563 5570 5575 5581 5586 5592 5598 5603 5607 5611 5616 5620 5625 5629 5633 5637 5641 5645 5649 5652 5655 5659 5662 5665 5669 5672 5676 5680 5684 5688 5691 5694 5696 5700 5704
5294 5295 5297 5299 5301 5303 5305 5308 5310 5313 5315 5319 5322 5325 5328 5332 5335 5340 5345 5350 5355 5360 5367 5373 5380 5387 5394 5402 5409 5416 5424 5431 5438 5445 5450 5457 5464 5472 5480 5489 5496 5505 5512 5519 5524 5529 5533 5537 5542 5548 5554 5560 5567 5573 5579 5584 5589 5595 5600 5604 5608 5612 5617 5622 5626 5630 5634 5638 5642 5645 5649 5653 5656 5660 5663 5666 5670 5674 5678 5682 5685 5689 5693 5695 5699 5702
5292 5294 5296 5298 5300 5302 5304 5307 5309 5312 5315 5317 5320 5323 5326 5330 5334 5339 5344 5349 5355 5360 5365 5370 5377 5385 5394 5402 5410 5417 5422 5429 5435 5442 5448 5455 5462 5470 5479 5486 5493 5500 5508 5515 5521 5526 5530 5535 5540 5545 5552 5559 5565 5571 5577 5582 5587 5592 5597 5601 5605 5609 5614 5619 5623 5627 5631 5635 5639 5643 5647 5650 5654 5657 5661 5664 5668 5672 5675 5679 5682 5685 5689 5694 5699 5702
5291 5293 5295 5297 5299 5301 5303 5305 5308 5311 5314 5316 5319 5322 5326 5330 5335 5340 5345 5349 5354 5359 5364 5370 5376 5384 5391 5399 5407 5414 5420 5426 5433 5439 5446 5454 5462 5470 5477 5484 5490 5497 5505 5513 5519 5523 5528 5532 5537 5543 5550 5557 5563 5569 5575 5580 5585 5590 5595 5599 5603 5606 5611 5615 5620 5624 5628 5632 5635 5640 5644 5648 5651 5655 5658 5661 5665 5669 5672 5676 5679 5682 5685 5690 5695 5699
5290 5292 5294 5296 5298 5300 5302 5305 5307 5310 5312 5315 5318 5321 5325 5330 5334 5339 5343 5348 5353 5358 5363 5370 5377 5385 5391 5398 5404 5410 5417 5424 5431 5438 5445 5453 5461 5468 5475 5483 5490 5498 5505 5512 5517 5522 5525 5530 5535 5541 5548 5555 5560 5566 5572 5577 5582 5587 5592 5597 5601 5604 5608 5612 5616 5621 5625 5629 5633 5637 5641 5645 5649 5652 5655 5659 5662 5666 5669 5673 5676 5679 5682 5686 5690 5695
5290 5291 5293 5295 5297 5299 5301 5303 5306 5309 5311 5314 5318 5321 5324 5328 5333 5337 5342 5347 5352 5358 5364 5370 5377 5384 5391 5398 5404 5410 5416 5422 5430 5437 5444 5451 5459 5466 5473 5480 5488 5496 5503 5510 5515 5520 5524 5528 5533 5539 5546 5552 5558 5564 5570 5574 5579 5584 5590 5595 5599 5602 5605 5610 5614 5618 5622 5626 5630 5634 5638 5642 5646 5650 5653 5656 5660 5663 5666 5670 5673 5676 5680 5683 5687 5691
5289 5290 5292 5295 5296 5298 5300 5303 5305 5308 5310 5314 5317 5321 5324 5328 5333 5337 5342 5347 5353 5358 5365 5371 5377 5382 5389 5395 5402 5409 5415 5422 5429 5436 5442 5450 5457 5465 5472 5479 5486 5493 5501 5508 5514 5519 5523 5527 5531 5537 5543 5549 5555 5561 5567 5571 5576 5581 5588 5593 5596 5600 5603 5607 5612 5616 5621 5624 5627 5631 5635 5639 5643 5647 5650 5654 5657 5660 5664 5667 5670 5674 5677 5680 5685 5688
5288 5290 5292 5294 5295 5298 5300 5302 5305 5307 5310 5313 5316 5320 5323 5328 5332 5336 5342 5347 5352 5357 5363 5369 5374 5380 5386 5393 5400 5406 5413 5420 5427 5433 5440 5449 5457 5464 5470 5477 5485 5492 5500 5507 5513 5517 5522 5525 5529 5534 5541 5547 5553 5558 5564 5569 5574 5580 5585 5589 5593 5597 5601 5605 5610 5615 5619 5623 5625 5629 5632 5636 5640 5644 5648 5652 5655 5658 5661 5665 5668 5672 5675 5679 5682 5685
5287 5289 5291 5293 5295 5297 5299 5301 5304 5306 5310 5312 5315 5319 5323 5327 5331 5335 5340 5345 5350 5355 5361 5366 5373 5380 5387 5393 5400 5406 5412 5419 5425 5432 5440 5448 5454 5460 5468 5476 5484 5491 5499 5506 5511 5515 5519 5523 5527 5532 5540 5546 5551 5556 5561 5566 5572 5577 5582 5585 5590 5594 5599 5604 5608 5612 5616 5620 5623 5626 5630 5635 5639 5642 5646 5650 5653 5656 5660 5663 5666 5670 5674 5677 5680 5682
5287 5289 5290 5292 5294 5296 5299 5301 5304 5306 5309 5312 5316 5320 5323 5327 5331 5335 5340 5345 5350 5356 5362 5368 5375 5381 5388 5394 5400 5406 5413 5419 5425 5433 5440 5446 5452 5458 5465 5474 5481 5488 5496 5503 5508 5512 5517 5521 5525 5531 5539 5544 5549 5553 5558 5564 5569 5574 5577 5582 5587 5592 5597 5602 5606 5610 5614 5618 5621 5625 5629 5633 5637 5640 5644 5648 5651 5655 5658 5661 5665 5669 5673 5675 5677 5680
5287 5288 5290 5292 5294 5296 5299 5301 5304 5306 5309 5312 5315 5319 5323 5327 5331 5336 5341 5346 5352 5357 5362 5369 5375 5380 5385 5391 5398 5405 5411 5417 5424 5431 5439 5445 5450 5457 5464 5471 5478 5485 5493 5501 5507 5510 5515 5520 5525 5530 5537 5541 5546 5550 5555 5561 5566 5570 5575 5580 5585 5590 5595 5600 5604 5608 5612 5616 5620 5624 5627 5631 5635 5638 5642 5646 5650 5653 5656 5660 5664 5668 5672 5674 5676 5678
5286 5288 5290 5292 5294 5296 5298 5301 5303 5306 5309 5312 5315 5319 5322 5327 5331 5336 5341 5346 5351 5355 5361 5366 5371 5376 5382 5389 5396 5403 5409 5415 5422 5429 5436 5442 5449 5456 5463 5470 5476 5484 5492 5500 5506 5510 5514 5518 5523 5529 5535 5539 5544 5549 5553 5559 5564 5568 5573 5578 5584 5589 5593 5597 5602 5606 5610 5614 5618 5622 5626 5629 5632 5636 5640 5643 5647 5651 5655 5659 5663 5667 5671 5673 5674 5676
5286 5288 5290 5292 5294 5296 5298 5301 5303 5306 5309 5312 5315 5319 5323 5327 5332 5336 5340 5345 5349 5354 5359 5365 5370 5376 5384 5390 5396 5401 5408 5415 5421 5428 5434 5441 5448 5454 5460 5468 5475 5483 5491 5499 5504 5509 5512 5517 5522 5528 5533 5538 5542 5547 5552 5557 5562 5566 5571 5576 5582 5586 5591 5595 5599 5604 5608 5613 5617 5620 5624 5627 5630 5633 5637 5641 5645 5649 5653 5657 5662 5666 5669 5671 5672 5674
5286 5288 5290 5292 5294 5296 5298 5301 5303 5306 5309 5312 5316 5320 5323 5327 5332 5336 5340 5345 5350 5355 5360 5365 5371 5378 5384 5390 5395 5400 5407 5414 5420 5426 5433 5441 5447 5452 5458 5467 5475 5483 5490 5496 5502 5507 5511 5515 5520 5526 5531 5536 5541 5546 5551 5556 5560 5564 5569 5575 5579 5584 5589 5594 5598 5602 5607 5612 5616 5620 5622 5625 5628 5631 5634 5637 5642 5646 5651 5655 5660 5664 5668 5669 5670 5672
5287 5288 5290 5292 5294 5296 5299 5301 5304 5306 5310 5313 5316 5320 5324 5327 5331 5336 5340 5346 5351 5356 5361 5366 5372 5378 5383 5388 5393 5400 5407 5413 5419 5424 5432 5440 5446 5451 5458 5467 5475 5482 5489 5495 5500 5505 5510 5513 5519 5525 5530 5535 5540 5545 5550 5555 5559 5563 5568 5573 5577 5582 5587 5592 5596 5600 5605 5610 5615 5619 5622 5624 5626 5628 5630 5634 5638 5643 5648 5653 5658 5662 5665 5667 5669 5670
5287 5289 5290 5292 5294 5296 5299 5301 5304 5307 5310 5313 5317 5320 5324 5328 5332 5336 5341 5346 5351 5355 5360 5366 5372 5377 5383 5388 5395 5401 5407 5412 5417 5424 5432 5439 5445 5450 5458 5467 5474 5481 5487 5494 5499 5503 5506 5511 5518 5524 5528 5532 5538 5543 5548 5552 5557 5561 5566 5571 5576 5580 5585 5589 5594 5599 5603 5608 5613 5617 5620 5624 5625 5627 5628 5631 5635 5640 5645 5650 5655 5659 5663 5665 5667 5669
5288 5290 5291 5293 5295 5297 5300 5302 5305 5307 5310 5314 5317 5321 5325 5328 5332 5337 5341 5346 5350 5355 5361 5366 5372 5377 5383 5389 5395 5400 5405 5411 5417 5424 5431 5438 5443 5450 5457 5465 5472 5479 5486 5491 5495 5499 5504 5509 5515 5522 5526 5530 5535 5540 5545 5550 5555 5560 5565 5570 5574 5578 5582 5588 5593 5597 5601 5605 5610 5614 5617 5620 5623 5625 5628 5630 5633 5637 5641 5646 5651 5656 5660 5663 5665 5667
5289 5290 5292 5294 5296 5298 5300 5303 5305 5308 5311 5314 5318 5321 5325 5329 5333 5337 5341 5345 5351 5356 5362 5367 5372 5377 5383 5388 5393 5398 5403 5410 5417 5424 5430 5436 5443 5450 5457 5463 5470 5477 5485 5490 5494 5497 5502 5507 5513 5519 5524 5528 5533 5538 5543 5549 5553 5558 5562 5567 5570 5574 5579 5585 5590 5595 5598 5602 5606 5610 5613 5616 5619 5622 5625 5628 5631 5635 5639 5643 5648 5653 5657 5661 5663 5665
5290 5292 5293 5295 5297 5299 5301 5304 5306 5309 5312 5315 5318 5322 5325 5329 5333 5337 5342 5346 5351 5356 5362 5367 5372 5378 5382 5388 5393 5398 5404 5410 5417 5423 5429 5435 5443 5450 5457 5463 5470 5477 5483 5488 5493 5498 5503 5507 5512 5518 5522 5526 5531 5536 5542 5547 5551 5555 5559 5563 5567 5571 5576 5582 5587 5591 5595 5598 5602 5605 5608 5611 5615 5618 5622 5625 5629 5633 5637 5641 5645 5649 5654 5657 5660 5663
5292 5293 5294 5296 5298 5300 5302 5305 5307 5310 5313 5316 5319 5322 5326 5330 5334 5338 5342 5346 5351 5356 5361 5366 5371 5376 5381 5387 5394 5400 5405 5411 5416 5422 5428 5435 5442 5449 5455 5462 5469 5475 5481 5485 5490 5496 5501 5506 5510 5515 5519 5525 5530 5535 5540 5544 5548 5552 5557 5561 5565 5569 5573 5577 5582 5586 5590 5594 5597 5600 5603 5607 5610 5614 5618 5622 5626 5631 5635 5639 5642 5646 5650 5654 5657 5660
5293 5294 5295 5297 5299 5301 5304 5306 5308 5311 5314 5317 5320 5323 5326 5330 5334 5338 5342 5347 5351 5356 5361 5365 5370 5375 5380 5386 5392 5397 5403 5409 5415 5420 5427 5434 5440 5447 5453 5460 5466 5472 5478 5483 5488 5493 5497 5502 5507 5512 5516 5522 5527 5532 5537 5541 5545 5550 5556 5560 5564 5568 5571 5575 5579 5583 5587 5590 5593 5597 5601 5605 5608 5611 5615 5620 5624 5628 5632 5636 5640 5643 5647 5651 5655 5658
5294 5295 5297 5299 5300 5302 5305 5307 5310 5312 5315 5318 5321 5324 5327 5331 5335 5339 5343 5347 5351 5356 5361 5366 5370 5375 5380 5385 5390 5395 5400 5406 5413 5419 5425 5432 5438 5445 5452 5458 5464 5468 5474 5480 5486 5490 5494 5500 5505 5510 5515 5520 5525 5529 5535 5540 5545 5550 5556 5561 5565 5569 5572 5575 5577 5580 5585 5588 5591 5595 5599 5603 5606 5610 5614 5618 5622 5626 5630 5634 5637 5641 5645 5648 5652 5655
5295 5297 5298 5300 5302 5304 5306 5309 5311 5313 5316 5319 5322 5325 5328 5332 5335 5339 5343 5348 5352 5356 5361 5366 5371 5376 5381 5386 5391 5395 5400 5406 5412 5418 5424 5430 5437 5444 5450 5456 5461 5465 5470 5477 5483 5488 5492 5498 5503 5509 5513 5518 5522 5526 5531 5537 5544 5550 5556 5561 5565 5569 5572 5574 5576 5578 5581 5586 5590 5593 5596 5600 5604 5608 5612 5616 5620 5624 5628 5631 5635 5639 5642 5646 5649 5653
5297 5298 5300 5301 5303 5305 5307 5310 5312 5315 5317 5320 5323 5325 5329 5332 5336 5340 5344 5348 5352 5357 5361 5366 5371 5376 5381 5386 5391 5396 5402 5407 5413 5418 5423 5429 5435 5442 5448 5454 5459 5463 5467 5474 5480 5485 5490 5495 5500 5505 5510 5516 5521 5526 5530 5536 5541 5547 5554 5559 5563 5565 5568 5570 5572 5575 5578 5582 5587 5591 5595 5598 5602 5606 5610 5614 5618 5621 5625 5629 5632 5635 5639 5643 5646 5650
5299 5300 5301 5303 5305 5307 5309 5311 5313 5316 5318 5321 5324 5327 5330 5334 5337 5341 5345 5349 5353 5357 5362 5366 5371 5376 5380 5385 5390 5395 5401 5406 5411 5416 5422 5428 5434 5440 5446 5452 5456 5460 5465 5470 5477 5483 5488 5492 5497 5501 5507 5513 5519 5525 5528 5534 5540 5545 5551 5556 5560 5562 5565 5566 5569 5572 5575 5579 5584 5588 5592 5595 5600 5604 5607 5611 5615 5619 5623 5627 5630 5633 5636 5640 5644 5647
5301 5302 5303 5305 5307 5308 5310 5313 5315 5317 5320 5322 5325 5329 5332 5335 5339 5343 5346 5350 5354 5359 5363 5367 5372 5376 5381 5385 5390 5394 5399 5405 5410 5415 5422 5428 5433 5439 5445 5450 5454 5458 5462 5468 5475 5480 5485 5490 5495 5500 5507 5513 5518 5521 5525 5530 5536 5542 5548 5551 5554 5557 5561 5564 5566 5568 5572 5576 5581 5586 5590 5593 5597 5601 5605 5610 5614 5618 5621 5625 5629 5632 5635 5638 5641 5645
5303 5304 5305 5307 5309 5310 5312 5314 5316 5319 5321 5324 5327 5330 5333 5336 5340 5344 5348 5352 5356 5360 5364 5368 5373 5378 5382 5386 5391 5395 5400 5405 5410 5415 5421 5427 5432 5438 5443 5448 5452 5456 5460 5465 5471 5478 5483 5488 5493 5499 5505 5510 5515 5520 5523 5528 5534 5540 5544 5546 5550 5554 5558 5562 5564 5566 5570 5575 5579 5584 5588 5591 5595 5600 5604 5608 5612 5616 5620 5623 5626 5630 5633 5636 5640 5643
5305 5306 5307 5309 5310 5312 5314 5316 5318 5321 5323 5326 5329 5332 5335 5338 5341 5345 5349 5352 5356 5360 5364 5368 5373 5377 5381 5386 5391 5396 5400 5405 5410 5415 5420 5426 5431 5437 5442 5447 5451 5455 5459 5463 5469 5475 5480 5486 5491 5496 5501 5506 5511 5515 5520 5527 5533 5538 5540 5543 5547 5551 5556 5560 5563 5565 5569 5573 5577 5582 5586 5590 5594 5598 5602 5606 5610 5614 5618 5621 5625 5628 5630 5634 5637 5641
5308 5309 5310 5311 5312 5314 5316 5318 5320 5323 5325 5328 5330 5334 5336 5340 5343 5346 5350 5354 5357 5361 5365 5369 5372 5376 5380 5385 5390 5395 5400 5405 5409 5414 5420 5425 5430 5435 5440 5445 5450 5454 5457 5462 5467 5473 5479 5484 5489 5494 5499 5504 5508 5513 5518 5525 5530 5534 5536 5540 5545 5551 5555 5558 5562 5566 5569 5571 5575 5580 5585 5589 5592 5596 5601 5605 5609 5612 5616 5619 5623 5626 5629 5632 5635 5639
5310 5311 5312 5313 5315 5316 5318 5320 5322 5325 5327 5330 5332 5335 5338 5341 5344 5348 5351 5355 5359 5362 5366 5370 5374 5378 5382 5386 5390 5395 5400 5404 5409 5414 5419 5424 5429 5434 5439 5443 5447 5451 5455 5460 5465 5471 5477 5482 5487 5492 5497 5502 5506 5511 5516 5522 5527 5530 5533 5539 5545 5549 5552 5556 5561 5566 5570 5571 5574 5578 5583 5588 5592 5595 5599 5603 5606 5610 5614 5617 5620 5624 5627 5630 5634 5637
5313 5314 5315 5316 5317 5319 5320 5322 5325 5327 5329 5331 5334 5337 5340 5342 5345 5349 5352 5356 5359 5363 5367 5371 5375 5379 5383 5387 5391 5395 5400 5404 5409 5414 5419 5424 5428 5432 5437 5441 5445 5449 5453 5458 5463 5469 5475 5480 5485 5489 5495 5500 5505 5509 5514 5519 5524 5528 5533 5539 5544 5548 5552 5557 5562 5566 5569 5571 5573 5575 5579 5585 5591 5595 5597 5600 5603 5607 5611 5615 5618 5622 5625 5628 5632 5635
5315 5316 5317 5318 5320 5321 5323 5325 5327 5329 5331 5333 5336 5338 5341 5344 5347 5350 5354 5357 5360 5364 5367 5371 5375 5379 5383 5387 5392 5396 5400 5405 5409 5413 5418 5423 5427 5431 5435 5439 5443 5446 5450 5456 5462 5468 5473 5478 5483 5488 5493 5498 5502 5507 5512 5517 5521 5526 5532 5538 5543 5547 5552 5557 5561 5564 5567 5570 5572 5574 5577 5582 5589 5595 5596 5598 5601 5605 5609 5613 5616 5620 5623 5626 5630 5633
5318 5319 5320 5321 5322 5323 5325 5327 5329 5331 5333 5335 5337 5340 5343 5345 5348 5352 5355 5358 5361 5365 5369 5372 5376 5380 5383 5387 5391 5396 5400 5404 5408 5412 5417 5421 5425 5430 5434 5438 5441 5445 5449 5455 5461 5466 5472 5477 5482 5487 5491 5496 5500 5505 5511 5516 5521 5526 5531 5536 5541 5545 5550 5555 5558 5561 5565 5568 5571 5573 5576 5579 5584 5590 5595 5597 5600 5603 5607 5610 5614 5617 5620 5624 5627 5630
5320 5321 5322 5323 5324 5325 5327 5329 5331 5333 5335 5337 5339 5342 5345 5347 5350 5353 5356 5359 5363 5366 5369 5373 5376 5380 5384 5388 5392 5396 5400 5404 5408 5412 5416 5421 5425 5429 5433 5437 5441 5445 5449 5455 5460 5465 5470 5475 5480 5485 5489 5494 5499 5504 5510 5515 5520 5525 5530 5535 5539 5543 5548 5552 5556 5560 5564 5567 5570 5573 5575 5577 5580 5584 5590 5594 5597 5600 5603 5607 5611 5615 5618 5621 5625 5627
5323 5323 5324 5325 5326 5328 5329 5331 5333 5335 5337 5339 5341 5344 5346 5349 5352 5355 5357 5360 5364 5367 5370 5373 5377 5380 5385 5389 5392 5396 5401 5405 5409 5412 5416 5421 5425 5430 5434 5438 5441 5445 5449 5454 5459 5464 5469 5474 5478 5483 5487 5492 5497 5503 5508 5513 5518 5523 5528 5532 5537 5541 5545 5550 5554 5559 5563 5566 5569 5572 5575 5577 5579 5582 5586 5590 5594 5598 5601 5605 5609 5612 5615 5619 5622 5625
5325 5326 5327 5328 5329 5330 5332 5333 5335 5337 5339 5340 5343 5345 5348 5350 5353 5356 5359 5362 5365 5368 5371 5374 5378 5381 5385 5388 5392 5396 5400 5405 5408 5412 5416 5420 5425 5430 5434 5437 5440 5444 5448 5453 5457 5462 5467 5472 5477 5481 5486 5491 5496 5501 5506 5511 5516 5521 5526 5530 5535 5539 5543 5547 5552 5557 5561 5564 5567 5570 5574 5577 5580 5582 5585 5588 5593 5597 5600 5603 5606 5610 5613 5615 5619 5622